When you browse on this site, cookies collect data to enhance your experience and personalize the content and advertising you see.
Visit our Privacy Policy to learn more. By continuing to use the site, you agree to this use of cookies and data.
  • In Hungary
  • List of Countries
  • For 7 days
  • Water Temperature
  • Weather Map
  • News
  • Weather Widgets
  • user-avatar
    Login

    Hourly Weather Maneevo

    Today, 22 October, Tuesday

    Time Temperature Precipitation Wind Pressure Humidity
    00:00 +3°C° 0 mm 6 mps 748 mmHg 71%
    01:00 +3°C° 0 mm 7 mps 748 mmHg 71%
    02:00 +3°C° 0 mm 7 mps 747 mmHg 71%
    03:00 +3°C° 0 mm 7 mps 746 mmHg 71%
    04:00 +4°C° 0 mm 7 mps 746 mmHg 72%
    05:00 +4°C° 0 mm 7 mps 745 mmHg 72%
    06:00 +4°C° 0 mm 8 mps 745 mmHg 73%
    07:00 +4°C° 0 mm 8 mps 744 mmHg 74%
    08:00 +4°C° 1 mm 8 mps 744 mmHg 78%
    09:00 +4°C° 1 mm 7 mps 744 mmHg 81%
    10:00 +4°C° 0 mm 7 mps 743 mmHg 84%
    11:00 +4°C° 0.6 mm 7 mps 743 mmHg 86%
    12:00 +4°C° 0.6 mm 6 mps 743 mmHg 88%
    13:00 +4°C° 0.6 mm 6 mps 743 mmHg 89%
    14:00 +6°C° 0.1 mm 5 mps 743 mmHg 90%
    15:00 +6°C° 0.1 mm 4 mps 743 mmHg 90%
    16:00 +6°C° 0.1 mm 4 mps 744 mmHg 91%
    17:00 +7°C° 0 mm 3 mps 744 mmHg 92%
    18:00 +7°C° 0 mm 3 mps 744 mmHg 93%
    19:00 +7°C° 0 mm 3 mps 744 mmHg 94%
    20:00 +7°C° 0 mm 3 mps 744 mmHg 93%
    21:00 +7°C° 0 mm 3 mps 744 mmHg 92%
    22:00 +7°C° 0 mm 2 mps 744 mmHg 92%
    23:00 +6°C° 0 mm 2 mps 744 mmHg 90%

    Tomorrow, 23 October, Wednesday

    Time Temperature Precipitation Wind Pressure Humidity
    00:00 +6°C° 0 mm 2 mps 744 mmHg 88%
    01:00 +5°C° 0 mm 2 mps 744 mmHg 86%
    02:00 +4°C° 0 mm 2 mps 744 mmHg 87%
    03:00 +4°C° 0 mm 2 mps 744 mmHg 87%
    04:00 +3°C° 0 mm 2 mps 744 mmHg 87%
    05:00 +4°C° 0 mm 1 mps 744 mmHg 88%
    06:00 +4°C° 0 mm 1 mps 744 mmHg 88%
    07:00 +4°C° 0 mm 1 mps 744 mmHg 89%
    08:00 +4°C° 0 mm 2 mps 744 mmHg 85%
    09:00 +4°C° 0 mm 3 mps 744 mmHg 82%
    10:00 +4°C° 0 mm 3 mps 744 mmHg 78%
    11:00 +5°C° 0 mm 4 mps 744 mmHg 76%
    12:00 +6°C° 0 mm 4 mps 744 mmHg 73%
    13:00 +7°C° 0 mm 4 mps 743 mmHg 70%
    14:00 +7°C° 0 mm 5 mps 743 mmHg 72%
    15:00 +7°C° 0 mm 5 mps 743 mmHg 73%
    16:00 +7°C° 0 mm 5 mps 742 mmHg 74%
    17:00 +6°C° 0 mm 5 mps 742 mmHg 76%
    18:00 +5°C° 0 mm 4 mps 742 mmHg 78%
    19:00 +5°C° 0 mm 4 mps 742 mmHg 80%
    20:00 +5°C° 0 mm 4 mps 742 mmHg 82%
    21:00 +5°C° 0 mm 4 mps 741 mmHg 84%
    22:00 +5°C° 0 mm 4 mps 741 mmHg 85%
    23:00 +6°C° 0 mm 5 mps 741 mmHg 86%

    Day after tomorrow, 24 October, Thursday

    Time Temperature Precipitation Wind Pressure Humidity
    00:00 +6°C° 0 mm 5 mps 741 mmHg 87%
    01:00 +6°C° 0 mm 5 mps 741 mmHg 88%
    02:00 +6°C° 0 mm 5 mps 741 mmHg 89%
    03:00 +6°C° 0 mm 4 mps 741 mmHg 89%
    04:00 +6°C° 0 mm 4 mps 741 mmHg 90%
    05:00 +6°C° 0 mm 4 mps 741 mmHg 90%
    06:00 +6°C° 0 mm 4 mps 741 mmHg 91%
    07:00 +6°C° 0 mm 4 mps 741 mmHg 92%
    08:00 +6°C° 0 mm 4 mps 742 mmHg 91%
    09:00 +7°C° 0 mm 4 mps 742 mmHg 89%
    10:00 +7°C° 0 mm 4 mps 742 mmHg 88%
    11:00 +9°C° 0 mm 3 mps 743 mmHg 83%
    12:00 +9°C° 0 mm 3 mps 743 mmHg 78%
    13:00 +10°C° 0 mm 3 mps 743 mmHg 73%
    14:00 +10°C° 0 mm 3 mps 743 mmHg 73%
    15:00 +10°C° 0 mm 2 mps 743 mmHg 73%
    16:00 +9°C° 0 mm 2 mps 744 mmHg 73%
    17:00 +9°C° 0 mm 2 mps 744 mmHg 74%
    18:00 +8°C° 0 mm 2 mps 744 mmHg 76%
    19:00 +8°C° 0 mm 2 mps 744 mmHg 77%
    20:00 +8°C° 0 mm 2 mps 745 mmHg 79%
    21:00 +7°C° 0 mm 2 mps 745 mmHg 80%
    22:00 +7°C° 0 mm 2 mps 745 mmHg 82%
    23:00 +6°C° 0 mm 2 mps 745 mmHg 84%

    25 October, Friday

    Time Temperature Precipitation Wind Pressure Humidity
    00:00 +6°C° 0 mm 2 mps 745 mmHg 85%
    01:00 +5°C° 0 mm 2 mps 745 mmHg 87%
    02:00 +5°C° 0 mm 2 mps 745 mmHg 88%
    03:00 +5°C° 0 mm 2 mps 745 mmHg 88%
    04:00 +5°C° 0 mm 2 mps 745 mmHg 88%
    05:00 +5°C° 0 mm 1 mps 746 mmHg 88%
    06:00 +5°C° 0 mm 1 mps 746 mmHg 89%
    07:00 +5°C° 0 mm 1 mps 746 mmHg 89%
    08:00 +6°C° 0 mm 1 mps 746 mmHg 84%
    09:00 +7°C° 0 mm 1 mps 746 mmHg 80%
    10:00 +8°C° 0 mm 1 mps 746 mmHg 75%
    11:00 +9°C° 0 mm 1 mps 746 mmHg 72%
    12:00 +10°C° 0 mm 1 mps 746 mmHg 69%
    13:00 +10°C° 0 mm 2 mps 746 mmHg 66%
    14:00 +11°C° 0 mm 1 mps 746 mmHg 68%
    15:00 +11°C° 0 mm 1 mps 746 mmHg 70%
    16:00 +10°C° 0 mm 1 mps 746 mmHg 72%
    17:00 +10°C° 0 mm 1 mps 746 mmHg 76%
    18:00 +9°C° 0 mm 1 mps 746 mmHg 81%
    19:00 +8°C° 0 mm 1 mps 746 mmHg 85%
    20:00 +7°C° 0 mm 1 mps 747 mmHg 85%
    21:00 +6°C° 0 mm 0 mps 747 mmHg 86%
    22:00 +6°C° 0 mm 0 mps 747 mmHg 87%
    23:00 +6°C° 0 mm 0 mps 747 mmHg 88%

    26 October, Saturday

    Time Temperature Precipitation Wind Pressure Humidity
    00:00 +6°C° 0 mm 1 mps 747 mmHg 88%
    01:00 +6°C° 0 mm 1 mps 747 mmHg 89%
    02:00 +6°C° 0 mm 1 mps 747 mmHg 89%
    03:00 +6°C° 0 mm 1 mps 747 mmHg 90%
    04:00 +6°C° 0 mm 1 mps 747 mmHg 91%
    05:00 +6°C° 0 mm 1 mps 747 mmHg 91%
    06:00 +6°C° 0 mm 1 mps 747 mmHg 92%
    07:00 +6°C° 0 mm 1 mps 747 mmHg 93%
    08:00 +7°C° 0 mm 1 mps 748 mmHg 90%
    09:00 +7°C° 0 mm 2 mps 748 mmHg 88%
    10:00 +8°C° 0 mm 2 mps 748 mmHg 86%
    11:00 +9°C° 0 mm 2 mps 748 mmHg 81%
    12:00 +10°C° 0 mm 2 mps 748 mmHg 76%
    13:00 +11°C° 0 mm 3 mps 748 mmHg 71%
    14:00 +11°C° 0 mm 3 mps 748 mmHg 73%
    15:00 +12°C° 0 mm 2 mps 747 mmHg 76%
    16:00 +12°C° 0 mm 2 mps 747 mmHg 78%
    17:00 +10°C° 0 mm 3 mps 747 mmHg 81%
    18:00 +9°C° 0 mm 3 mps 747 mmHg 85%
    19:00 +8°C° 0 mm 3 mps 747 mmHg 88%
    20:00 +8°C° 0 mm 3 mps 747 mmHg 89%
    21:00 +7°C° 0 mm 4 mps 747 mmHg 89%
    22:00 +7°C° 0 mm 4 mps 746 mmHg 89%
    23:00 +7°C° 0 mm 4 mps 746 mmHg 89%

    27 October, Sunday

    Time Temperature Precipitation Wind Pressure Humidity
    00:00 +7°C° 0 mm 4 mps 746 mmHg 89%
    01:00 +7°C° 0 mm 4 mps 746 mmHg 89%
    02:00 +7°C° 0 mm 4 mps 746 mmHg 88%
    03:00 +6°C° 0 mm 4 mps 746 mmHg 88%
    04:00 +6°C° 0 mm 4 mps 746 mmHg 87%
    05:00 +6°C° 0 mm 4 mps 746 mmHg 86%
    06:00 +6°C° 0 mm 4 mps 746 mmHg 84%
    07:00 +6°C° 0 mm 4 mps 746 mmHg 82%
    08:00 +7°C° 0 mm 4 mps 746 mmHg 76%
    09:00 +7°C° 0 mm 4 mps 746 mmHg 69%
    10:00 +8°C° 0 mm 5 mps 746 mmHg 63%
    11:00 +10°C° 0 mm 5 mps 746 mmHg 59%
    12:00 +11°C° 0 mm 6 mps 745 mmHg 55%
    13:00 +13°C° 0 mm 6 mps 745 mmHg 51%
    14:00 +11°C° 0 mm 6 mps 745 mmHg 52%
    15:00 +12°C° 0 mm 5 mps 745 mmHg 54%
    16:00 +12°C° 0 mm 5 mps 744 mmHg 56%
    17:00 +10°C° 0 mm 5 mps 744 mmHg 60%
    18:00 +9°C° 0 mm 5 mps 744 mmHg 65%
    19:00 +8°C° 0 mm 5 mps 744 mmHg 70%
    20:00 +8°C° 0 mm 5 mps 744 mmHg 71%
    21:00 +7°C° 0 mm 5 mps 743 mmHg 72%
    22:00 +7°C° 0 mm 5 mps 743 mmHg 73%
    23:00 +7°C° 0 mm 5 mps 743 mmHg 74%

    28 October, Monday

    Time Temperature Precipitation Wind Pressure Humidity
    00:00 +6°C° 0 mm 5 mps 742 mmHg 74%
    01:00 +6°C° 0 mm 5 mps 742 mmHg 75%
    02:00 +6°C° 0 mm 5 mps 742 mmHg 75%
    03:00 +6°C° 0 mm 5 mps 741 mmHg 76%
    04:00 +6°C° 0 mm 5 mps 741 mmHg 76%
    05:00 +5°C° 0 mm 5 mps 741 mmHg 77%
    06:00 +5°C° 0 mm 5 mps 740 mmHg 77%
    07:00 +5°C° 0 mm 5 mps 740 mmHg 78%
    08:00 +5°C° 0 mm 6 mps 739 mmHg 74%
    09:00 +7°C° 0 mm 6 mps 739 mmHg 71%
    10:00 +6°C° 0 mm 7 mps 739 mmHg 67%
    11:00 +9°C° 0 mm 7 mps 738 mmHg 63%
    12:00 +10°C° 0 mm 8 mps 738 mmHg 60%
    13:00 +11°C° 0 mm 8 mps 737 mmHg 56%
    14:00 +11°C° 0 mm 8 mps 737 mmHg 58%
    15:00 +10°C° 0 mm 8 mps 736 mmHg 59%
    16:00 +10°C° 0 mm 7 mps 736 mmHg 61%
    17:00 +10°C° 0 mm 7 mps 735 mmHg 62%
    18:00 +9°C° 0 mm 7 mps 735 mmHg 63%
    19:00 +9°C° 0 mm 7 mps 734 mmHg 64%
    20:00 +9°C° 0 mm 8 mps 733 mmHg 65%
    21:00 +9°C° 0 mm 8 mps 732 mmHg 65%
    22:00 +8°C° 0 mm 9 mps 732 mmHg 66%
    23:00 +7°C° 0.2 mm 9 mps 731 mmHg 69%
    Show more